Location: Donald C. Martin Observatory
(38.3885°N, 82.3916°W)
Time: 07:21:52
(UTC-04:00)

Cosmos 1484 Rocket - Visible Passes

Search period start: 31 July 2015 00:00
Search period end: 10 August 2015 00:00
Orbit: 511 x 566 km, 97.4° (Epoch: 30 July)

Date Brightness Start Highest point End Pass type
(mag) Time Alt. Az. Time Alt. Az. Time Alt. Az.
31 Jul 5.7 21:29:25 10° SW 21:31:34 14° W 21:33:34 10° WNW visible
01 Aug 5.6 21:21:07 10° SW 21:23:46 17° W 21:26:20 10° NW visible
02 Aug 5.4 21:12:59 10° SW 21:15:59 22° W 21:18:58 10° NW visible
03 Aug 5.0 21:04:57 10° SSW 21:08:13 27° W 21:11:30 10° NW visible
